OBJECT D, 60015

Orbit data source: Space-Track

You're viewing an Uncataloged Satellite

Recently launched and/or uncataloged satellites may have evolving metadata. Metadata may include but not limited to: Owner, Maufacturer, Bus, Motor, and Mission.

OBJECT D, 60015 is a satellite owned by Xinghe Dongli (CN) in SSO that was launched on Thu, 06 Jun 2024 UTC via a GUSHENXING 1 launch vehicle from the Jiuquan Satellite Launch Center, China (JSC). Unknown objects in Earth's orbit typically refer to objects detected orbiting the Earth but have not yet been identified or cataloged. These objects could be anything from previously untracked satellites, spent rocket stages, debris from satellite collisions, or even natural meteoroids temporarily captured by Earth's gravity.

Loading next visibility...
Identifier
60015, 2024-110D
Orbit
SSO
Country
Flag of CNCN / PRC
Related business
Flag of CNGalactic Energy Co. (CN)
Manufacturer
Xinghe Dongli
Mission
Commercial Technology
Bus & Motor
LSP, EDGE
Mass
20 kg wet, 20 kg dry
Launch date (UTC)
2024-06-06 (2 years ago)
Launch vehicle
GUSHENXING 1
Launch site
Jiuquan Satellite Launch Center, China (JSC)
Object type
Unknown
Shape & HBR
Box, 0.2 m
Radar Cross Section
0.240 m², Medium (>0.1 m² and < 1m²)

Expand to show TLE details & history
Last TLE update: 22 hours ago

TLE from 22 hours ago
0 OBJECT D
1 60015U 24110D   26172.54710278  .00003466  00000-0  14502-3 0  9996
2 60015  97.5743 269.8354 0008703 230.4510 129.5958 15.24237679112929
Epoch: 2026-06-21T13:07Z
TLE epoch observation values (Epoch: 2026-06-21T13:07:49.680Z)
Latitude
-0.00007°
Longitude
163.1326°
Altitude
499.982 km
Speed
7.612 km/s
True Right ascension
17h 59m 20s
True Declination
0° 00' 00"
Sunlit
Object was in full shadow at epoch
Visualization orbit readout
Latitude
Unknown
Longitude
Unknown
Altitude
Unknown
Speed
Unknown
Apparent Right ascension
Unknown
Apparent Declination
Unknown
Sunlit
N/A
Visualization observer readout
Local Sidereal Time
21:41:26
Azimuth
Unknown
Elevation
Unknown
Doppler factor
Unknown
Orbital elements
Apogee altitude
496.02 km
Perigee altitude
484.066 km
Semi-major axis
6,868.18 km
Eccentricity
0.00087
Inclination
97.5743°
RAAN
269.8354°
Arg. of periapsis
230.451°
True anomaly
129.67259°
Mean anomaly
129.5958°
Eccentric anomaly
129.6342°
Mean motion
3.81312 °/min
Orbital period
94.41 mins
BSTAR
0.00014502
Loading maneuver chart data...
Computing Atmospheric mass density...
Loading historical data...
Loading historical data...
Loading historical data...
Loading historical data...
Loading historical data...
Loading historical data...
Loading historical data...
Other satellites on launch #110 in the year 2024 (2024-06-06 UTC)

Documentation

Showing up to 5 results
|